Location: *
(49.8044°N, 4.0558°E)
Time: 13:32:08
(UTC+00:00)

Cosmos 2184 Rocket - Pass Details

Date: 09 April 2020
Orbit: 958 x 1003 km, 82.9° (Epoch: 02 June)

Event Time Altitude Azimuth Distance (km) Brightness Sun altitude
Rises 18:59:06 0° 350° (N) 3,711 7.5 -5.6°
Reaches altitude 10° 19:01:38 10° 350° (N) 2,752 6.8 -5.9°
Maximum altitude 19:07:58 88° 266° (W) 984 4.1 -6.9°
Drops below altitude 10° 19:14:10 10° 174° (S) 2,703 6.1 -7.8°
Sets 19:16:39 0° 174° (S) 3,641 6.7 -8.2°
